1313107232566,0.670002
1313107292566,0.674562
1313107352566,0.668396
1313107412566,0.672434
1313107472566,0.669987
1313107532566,0.672814
1313107592566,0.672644
1313107652566,0.668891
1313107712566,0.664303
1313107772566,0.665887
1313107832566,0.665964
1313107892566,0.669625
1313107952566,0.668204
1313108012566,0.665076
1313108072566,0.672198
1313108132566,0.668018
1313108192566,0.666678
1313108252566,0.668189
1313108312566,0.668157
1313108372566,0.666347
1313108432566,0.666287
1313108492566,0.666806
1313108552566,0.671637
1313108612566,0.671652
1313108672566,0.664946
1313108732566,0.667738
1313108792566,0.663249
1313108852566,0.670141
1313108912566,0.667984
1313108972566,0.668562
1313109032566,0.663379
1313109092566,0.667604
1313109152566,0.667320
1313109212566,0.660930
1313109272566,0.665633
1313109332566,0.663313
1313109392566,0.670817
1313109452566,0.671490
1313109512566,0.665033
1313109932566,0.672106
1313109992566,0.665998
1313110052566,0.661868
1313110112566,0.669985
1313110172566,0.662180
1313110232566,0.665507
1313110292566,0.662681
1313110352566,0.674180
1313110412566,0.667033
1313110472566,0.664252
1313110532566,0.668835
1313110592566,0.660543
1313110652566,0.666892
1313110712566,0.668351
1313110772566,0.662414
1313110832576,0.664293
1313110892576,0.667111
1313110952576,0.662821
1313111012576,0.668592
1313111072576,0.663149
1313111132576,0.660054
1313111192576,0.659829
1313111252576,0.662915
1313111312576,0.666060
1313111372576,0.667679
1313111432576,0.666109
1313111492576,0.662277
1313111552576,0.665592
1313111612576,0.665102
1313111672576,0.658714
1313111732576,0.660869
1313111792576,0.666591
1313111852576,0.657384
1313111912576,0.664457
1313111972576,0.663576
1313112032576,0.667146
1313112092576,0.660421
1313112152576,0.665915
1313112212576,0.660614
1313112272576,0.661592
1313112332576,0.662332
1313112392576,0.660851
1313112452576,0.662138
1313112512576,0.665820
1313112572576,0.661466
1313112632576,0.662522
1313112692576,0.660540
1313112752576,0.662525
1313112812576,0.664389
1313112872576,0.664765
1313112932576,0.656673
1313112992576,0.663417
1313113052576,0.660029
1313113112576,0.667605
1313113172576,0.657857
1313113232576,0.660168
1313113292576,0.663245
1313113352576,0.665055
1313113412576,0.664968
1313113472576,0.659831
1313113532576,0.661840
1313113592576,0.663743
1313113652576,0.662879
1313113712576,0.662787
1313113772576,0.660717
1313113832576,0.660063
1313113892576,0.664986
1313113952576,0.665250
1313114012576,0.660734
1313114072576,0.665721
1313114132576,0.660094
1313114192576,0.657630
1313114252576,0.657340
1313114312576,0.662346
1313114372576,0.661811
1313114432585,0.663109
1313114492585,0.658542
1313114552585,0.663425
1313114612585,0.657546
1313114672585,0.658266
1313114732585,0.659495
1313114792585,0.659664
1313114852585,0.661060
1313114912585,0.668069
1313114972585,0.664841
1313115032585,0.657966
1313115092585,0.661603
1313115152585,0.661092
1313115212585,0.658693
1313115272585,0.658977
1313115332585,0.663865
1313115392585,0.653941
1313115452585,0.666636
1313115512585,0.656920
1313115572585,0.659639
1313115632585,0.663274
1313115692585,0.659924
1313115752585,0.664028
1313115812585,0.666159
1313115872585,0.655961
1313115932585,0.661857
1313115992585,0.663089
1313116052585,0.662999
1313116112585,0.664522
1313116172585,0.652531
1313116232585,0.663517
1313116292585,0.667889
1313116352585,0.658881
1313116412585,0.665050
1313116472585,0.657755
1313116532585,0.667892
1313116592585,0.661191
1313116652585,0.662893
1313116712585,0.663223
1313116772585,0.657959
1313116832585,0.662411
1313116892585,0.654182
1313116952585,0.657404
1313117012585,0.663074
1313117072585,0.659989
1313117132585,0.658371
1313117192585,0.660307
1313117252585,0.666670
1313117312585,0.663113
1313117372585,0.655433
1313117432585,0.664036
1313117492585,0.659252
1313117552585,0.664075
1313117612585,0.665109
1313117672585,0.661427
1313117732585,0.669798
1313117792585,0.667443
1313117852585,0.662877
1313117912585,0.669595
1313117972585,0.666067
1313118032594,0.662674
1313118092594,0.661899
1313118152594,0.668042
1313118212594,0.657365
1313118272594,0.665459
1313118332594,0.662554
1313118392594,0.667309
1313118452594,0.668228
1313118512594,0.658536
1313118572594,0.661365
1313118632594,0.665613
1313118692594,0.662166
1313118752594,0.660402
1313118812594,0.660545
1313118872594,0.662398
1313118932594,0.662298
1313118992594,0.664206
1313119052594,0.661751
1313119112594,0.662017
1313119172594,0.663060
1313119232594,0.660718
1313119292594,0.666082
1313119352594,0.657358
1313119412594,0.663468
1313119472594,0.659033
1313119532594,0.663017
1313119592594,0.662560
1313119652594,0.658929
1313119712594,0.665080
1313119772594,0.665930
1313119832594,0.670185
1313119892594,0.661351
1313119952594,0.658412
1313120012594,0.660628
1313120072594,0.662903
1313120132594,0.664200
1313120192594,0.656941
1313120252594,0.657918
1313120312594,0.662403
1313120372594,0.662986
1313120432594,0.660250
1313120492594,0.658967
1313120552594,0.660702
1313120612594,0.666102
1313120672594,0.662658
1313120732594,0.655998
1313120792594,0.659011
1313120852594,0.668797
1313120912594,0.660201
1313120972594,0.663428
1313121032594,0.659200
1313121092594,0.662081
1313121152594,0.663568
1313121212594,0.666251
1313121272594,0.665362
1313121332594,0.664412
1313121392594,0.658667
1313121452594,0.661882
1313121512594,0.663445
1313121572594,0.657660
1313121632603,0.662889
1313121692603,0.673752
1313121752603,0.664361
1313121812603,0.658229
1313121872603,0.660421
1313121932603,0.665944
1313121992603,0.663445
1313122052603,0.661410
1313122112603,0.669767
1313122172603,0.655489
1313122232603,0.665320
1313122292603,0.663102
1313122352603,0.667127
1313122412603,0.659516
1313122472603,0.657788
1313122532603,0.659610
1313122592603,0.659901
1313122652603,0.666281
1313122712603,0.662830
1313122772603,0.666668
1313122832603,0.658687
1313122892603,0.655588
1313122952603,0.659703
1313123012603,0.665332
1313123072603,0.660569
1313123132603,0.665053
1313123192603,0.656559
1313123252603,0.660696
1313123312603,0.669697
1313123372603,0.659655
1313123432603,0.664549
1313123492603,0.660906
1313123552603,0.664461
1313123612603,0.667793
1313123672603,0.665610
1313123732603,0.663205
1313123792603,0.665211
1313123852603,0.658299
1313123912603,0.669151
1313123972603,0.660244
1313124032603,0.661810
1313124092603,0.662374
1313124152603,0.665432
1313124212603,0.667332
1313124272603,0.664609
1313124332603,0.664256
1313124392603,0.665094
1313124452603,0.665779
1313124512603,0.659411
1313124572603,0.657125
1313124632603,0.665769
1313124692603,0.674603
1313124752603,0.666838
1313124812603,0.661169
1313124872603,0.669078
1313124932603,0.661019
1313124992603,0.665535
1313125052603,0.668516
1313125112603,0.667382
1313125172603,0.674302
1313125232612,0.664017
1313125292612,0.668311
1313125352612,0.671288
1313125412612,0.667103
1313125472612,0.669800
1313125532612,0.666888
1313125592612,0.665078
1313125652612,0.667900
1313125712612,0.668341
1313125772612,0.672353
1313125832612,0.671380
1313125892612,0.673324
1313125952612,0.666928
1313126012612,0.673246
1313126072612,0.667608
1313126132612,0.666494
1313126192612,0.668670
1313126252612,0.666698
1313126312612,0.670436
1313126372612,0.665967
1313126432612,0.670088
1313126492612,0.665783
1313126552612,0.664099
1313126612612,0.671687
1313126672612,0.667660
1313126732612,0.672384
1313126792612,0.663078
1313126852612,0.665665
1313126912612,0.668289
1313126972612,0.670300
1313127032612,0.664415
1313127092612,0.668166
1313127152612,0.664947
1313127212612,0.665541
1313127272612,0.673322
1313127332612,0.668164
1313127392612,0.669340
1313127452612,0.663013
1313127512612,0.671082
1313127572612,0.672763
1313127632612,0.659472
1313127692612,0.662838
1313127752612,0.668489
1313127812612,0.665681
1313127872612,0.667227
1313127932612,0.667417
1313127992612,0.659230
1313128052612,0.665698
1313128112612,0.660366
1313128172612,0.665018
1313128232612,0.667428
1313128292612,0.669138
1313128352612,0.668715
1313128412612,0.662427
1313128472612,0.660224
1313128532612,0.661835
1313128592612,0.664051
1313128652612,0.660289
1313128712612,0.666428
1313128772612,0.656557
1313128832621,0.660944
1313128892621,0.667029
1313128952621,0.663110
1313129012621,0.672249
1313129072621,0.667336
1313129132621,0.664577
1313129192621,0.663666
1313129252621,0.656968
1313129312621,0.656648
1313129372621,0.657929
1313129432621,0.654729
1313129492621,0.661351
1313129552621,0.667113
1313129612621,0.657399
1313129672621,0.662775
1313129732621,0.671742
1313129792621,0.659460
1313129852621,0.661592
1313129912621,0.659726
1313129972621,0.662328
1313130032621,0.659902
1313130092621,0.662909
1313130152621,0.658468
1313130212621,0.661985
1313130272621,0.660325
1313130332621,0.663287
1313130392621,0.665166
1313130452621,0.662783
1313130512621,0.659972
1313130572621,0.663141
1313130632621,0.658064
1313130692621,0.660676
1313130752621,0.661995
1313130812621,0.666893
1313130872621,0.659491
1313130932621,0.660973
1313130992621,0.663476
1313131052621,0.658514
1313131112621,0.672030
1313131172621,0.664200
1313131232621,0.663525
1313131292621,0.657041
1313131352621,0.663542
1313131412621,0.661554
1313131472621,0.661354
1313131532621,0.665106
1313131592621,0.665425
1313131652621,0.653699
1313131712621,0.656565
1313131772621,0.665349
1313131832621,0.659854
1313131892621,0.663711
1313131952621,0.660621
1313132012621,0.656859
1313132072621,0.664045
1313132132621,0.655382
1313132192621,0.660688
1313132252621,0.659810
1313132312621,0.662233
1313132372621,0.658779
1313132432630,0.659622
1313132492630,0.654951
1313132552630,0.659980
1313132612630,0.661446
1313132672630,0.663941
1313132732630,0.658109
1313132792630,0.661542
1313132852630,0.663742
1313132912630,0.661760
1313132972630,0.657234
1313133032630,0.662753
1313133092630,0.660832
1313133152630,0.664155
1313133212630,0.660440
1313133272630,0.660059
1313133332630,0.660783
1313133392630,0.670202
1313133452630,0.659696
1313133512630,0.663954
1313133572630,0.649381
1313133632630,0.652396
1313133692630,0.659072
1313133752630,0.657079
1313133812630,0.662703
1313133872630,0.648655
1313133932630,0.651490
1313133992630,0.657191
1313134052630,0.659722
1313134112630,0.657166
1313134172630,0.655234
1313134232630,0.655761
1313134292630,0.657291
1313134352630,0.653882
1313134412630,0.657651
1313134472630,0.655738
1313134532630,0.653885
1313134592630,0.654920
1313134652630,0.648490
1313134712630,0.654572
1313134772630,0.658975
1313134832630,0.651303
1313134892630,0.656154
1313134952630,0.654760
1313135012630,0.654234
1313135072630,0.655146
1313135132630,0.657826
1313135192630,0.656940
1313135252630,0.654344
1313135312630,0.663028
1313135372630,0.653013
1313135432630,0.651600
1313135492630,0.646703
1313135552630,0.659920
1313135612630,0.649898
1313135672630,0.651424
1313135732630,0.660083
1313135792630,0.646507
1313135852630,0.652396
1313135912630,0.657380
1313135972630,0.653291
1313136032639,0.647501
1313136092639,0.651953
1313136152639,0.651921
1313136212639,0.658323
1313136272639,0.655360
1313136332639,0.652009
1313136392639,0.649039
1313136452639,0.652978
1313136512639,0.654485
1313136572639,0.647061
1313136632639,0.652515
1313136692639,0.650745
1313136752639,0.657190
1313136812639,0.644697
1313136872639,0.649465
1313136932639,0.651644
1313136992639,0.653790
1313137052639,0.656499
1313137112639,0.649616
1313137172639,0.654314
1313137232639,0.652770
1313137292639,0.655933
1313137352639,0.649946
1313137412639,0.653419
1313137472639,0.651410
1313137532639,0.656813
1313137592639,0.654993
1313137652639,0.655141
1313137712639,0.658211
1313137772639,0.652787
1313137832639,0.659336
1313137892639,0.645135
1313137952639,0.650207
1313138012639,0.655905
1313138072639,0.644756
1313138132639,0.655780
1313138192639,0.660929
1313138252639,0.649810
1313138312639,0.653736
1313138372639,0.646200
1313138432639,0.647646
1313138492639,0.659121
1313138552639,0.650426
1313138612639,0.648362
1313138672639,0.651977
1313138732639,0.646776
1313138792639,0.655389
1313138852639,0.655228
1313138912639,0.650707
1313138972639,0.646962
1313139032639,0.652626
1313139092639,0.655849
1313139152639,0.656809
1313139212639,0.650442
1313139272639,0.651680
1313139332639,0.645607
1313139392639,0.644712
1313139452639,0.651484
1313139512639,0.657934
1313139572639,0.651001
1313139632648,0.653615
1313139692648,0.655912
1313139752648,0.652282
1313139812648,0.648258
1313139872648,0.660490
1313139932648,0.647084
1313139992648,0.649436
1313140052648,0.644834
1313140112648,0.653919
1313140172648,0.653949
1313140232648,0.646819
1313140292648,0.681936
1313140832648,0.656830
1313140892648,0.655145
1313140952648,0.647842
1313141012648,0.656017
1313141072648,0.650870
1313141132648,0.654992
1313141192648,0.649780
1313141252648,0.657178
1313141312648,0.648546
1313141372648,0.659625
1313141432648,0.654002
1313141492648,0.654906
1313141552648,0.646140
1313141612648,0.656465
1313141672648,0.656167
1313141732648,0.657982
1313141792648,0.649736
1313141852648,0.653902
1313141912648,0.657162
1313141972648,0.652129
1313142032648,0.649500
1313142092648,0.650854
1313142152648,0.652172
1313142212648,0.656945
1313142272648,0.656391
1313142332648,0.653271
1313142392648,0.650587
1313142452648,0.653648
1313142512648,0.649280
1313142572648,0.648437
1313142632648,0.646505
1313142692648,0.653323
1313142752648,0.657559
1313142812648,0.653802
1313142872648,0.657465
1313142932648,0.647446
1313142992648,0.653461
1313143052648,0.653911
1313143112648,0.660358
1313143172648,0.654047
1313143232657,0.645061
1313143292657,0.649225
1313143352657,0.652272
1313143412657,0.651511
1313143472657,0.650267
1313143532657,0.650556
1313143592657,0.652070
1313143652657,0.653109
1313143712657,0.645875
1313143772657,0.651539
1313143832657,0.650838
1313143892657,0.651595
1313143952657,0.651079
1313144012657,0.656817
1313144072657,0.652159
1313144132657,0.655646
1313144192657,0.646914
1313144252657,0.650765
1313144312657,0.640157
1313144372657,0.649172
1313144432657,0.648975
1313144492657,0.646985
1313144552657,0.655957
1313144612657,0.651325
1313144672657,0.654735
1313144732657,0.647003
1313144792657,0.652458
1313144852657,0.654231
1313144912657,0.653049
1313144972657,0.654608
1313145032657,0.653432
1313145092657,0.649452
1313145152657,0.648851
1313145212657,0.646105
1313145272657,0.652885
1313145332657,0.650439
1313145392657,0.650187
1313145452657,0.660730
1313145512657,0.651207
1313145572657,0.651974
1313145632657,0.655973
1313145692657,0.646464
1313145752657,0.652338
1313145812657,0.646542
1313145872657,0.649490
1313145932657,0.646465
1313145992657,0.652813
1313146052657,0.647388
1313146112657,0.648455
1313146172657,0.648030
1313146232657,0.661355
1313146292657,0.651628
1313146352657,0.652913
1313146412657,0.645333
1313146472657,0.645736
1313146532657,0.651701
1313146592657,0.651066
1313146652657,0.656164
1313146712657,0.654642
1313146772657,0.648588
1313146832666,0.646173
1313146892666,0.659134
1313146952666,0.648019
1313147012666,0.649321
1313147072666,0.652242
1313147132666,0.647272
1313147192666,0.647525
1313147252666,0.650043
1313147312666,0.647546
1313147372666,0.647483
1313147432666,0.650617
1313147492666,0.649836
1313147552666,0.652725
1313147612666,0.660739
1313147672666,0.649775
1313147732666,0.651268
1313147792666,0.654736
1313147852666,0.648479
1313147912666,0.647997
1313147972666,0.647185
1313148032666,0.648584
1313148092666,0.646023
1313148152666,0.651934
1313148212666,0.651811
1313148272666,0.644522
1313148332666,0.650375
1313148392666,0.648895
1313148452666,0.648239
1313148512666,0.651585
1313148572666,0.643898
1313148632666,0.655394
1313148692666,0.649588
1313148752666,0.659207
1313148812666,0.649440
1313148872666,0.651692
1313148932666,0.643997
1313148992666,0.653335
1313149052666,0.656090
1313149112666,0.649403
1313149172666,0.649150
1313149232666,0.646185
1313149292666,0.644379
1313149352666,0.646336
1313149412666,0.651295
1313149472666,0.653313
1313149532666,0.649258
1313149592666,0.642502
1313149652666,0.651400
1313149712666,0.644702
1313149772666,0.650727
1313149832666,0.650442
1313149892666,0.652616
1313149952666,0.644671
1313150012666,0.643152
1313150072666,0.646704
1313150132666,0.653920
1313150192666,0.644839
1313150252666,0.641522
1313150312666,0.653782
1313150372666,0.652637
1313150432675,0.651511
1313150492675,0.646172
1313150552675,0.647261
1313150612675,0.646249
1313150672675,0.647683
1313150732675,0.644454
1313150792675,0.644547
1313150852675,0.642775
1313150912675,0.651589
1313150972675,0.645301
1313151032675,0.652545
1313151092675,0.645426
1313151152675,0.648020
1313151212675,0.648312
1313151272675,0.646349
1313151332675,0.645257
1313151392675,0.643990
1313151452675,0.648101
1313151512675,0.645062
1313151572675,0.643764
1313151632675,0.650376
1313151692675,0.645641
1313151752675,0.644464
1313151812675,0.649104
1313151872675,0.646769
1313151932675,0.648046
1313151992675,0.652175
1313152052675,0.650002
1313152112675,0.651323
1313152172675,0.650349
1313152232675,0.651110
1313152292675,0.642302
1313152352675,0.645244
1313152412675,0.638515
1313152472675,0.643276
1313152532675,0.650485
1313152592675,0.649725
1313152652675,0.654828
1313152712675,0.650566
1313152772675,0.648797
1313152832675,0.644672
1313152892675,0.647396
1313152952675,0.647810
1313153012675,0.652382
1313153072675,0.643396
1313153132675,0.651983
1313153192675,0.649646
1313153252675,0.653310
1313153312675,0.651366
1313153372675,0.652501
1313153432675,0.646723
1313153492675,0.651127
1313153552675,0.649149
1313153612675,0.647562
1313153672675,0.640504
1313153732675,0.649937
1313153792675,0.644508
1313153852675,0.652348
1313153912675,0.647824
1313153972675,0.656927
1313154032684,0.649840
1313154092684,0.646521
1313154152684,0.652604
1313154212684,0.646428
1313154272684,0.649509
1313154332684,0.640241
1313154392684,0.648493
1313154452684,0.649698
1313154512684,0.652854
1313154572684,0.651921
1313154632684,0.648323
1313154692684,0.651975
1313154752684,0.653359
1313154812684,0.646388
1313154872684,0.653728
1313154932684,0.645757
1313154992684,0.653802
1313155052684,0.649840
1313155112684,0.651438
1313155172684,0.648815
1313155232684,0.660008
1313155292684,0.657491
1313155352684,0.650911
1313155412684,0.652478
1313155472684,0.649837
1313155532684,0.651788
1313155592684,0.658007
1313155652684,0.651834
1313155712684,0.652649
1313155772684,0.649001
1313155832684,0.652614
1313155892684,0.658051
1313155952684,0.653840
1313156012684,0.651561
1313156072684,0.654193
1313156132684,0.651116
1313156192684,0.652521
1313156252684,0.661904
1313156312684,0.651759
1313156372684,0.650372
1313156432684,0.650360
1313156492684,0.657167
1313156552684,0.646214
1313156612684,0.656111
1313156672684,0.652832
1313156732684,0.646711
1313156792684,0.650589
1313156852684,0.648412
1313156912684,0.656763
1313156972684,0.653251
1313157032684,0.649974
1313157092684,0.643497
1313157152684,0.649312
1313157212684,0.650069
1313157272684,0.644938
1313157332684,0.643958
1313157392684,0.653107
1313157452684,0.652433
1313157512684,0.653096
1313157572684,0.653626
1313157632693,0.646699
1313157692693,0.650718
1313157752693,0.648209
1313157812693,0.644957
1313157872693,0.654949
1313157932693,0.643772
1313157992693,0.649742
1313158052693,0.656133
1313158112693,0.660368
1313158172693,0.648298
1313158232693,0.654832
1313158292693,0.654351
1313158352693,0.648403
1313158412693,0.651917
1313158472693,0.657038
1313158532693,0.647919
1313158592693,0.650574
1313158652693,0.647792
1313158712693,0.649980
1313158772693,0.657509
1313158832693,0.652674
1313158892693,0.652436
1313158952693,0.653407
1313159012693,0.645237
1313159072693,0.650905
1313159132693,0.648853
1313159192693,0.651198
1313159252693,0.652709
1313159312693,0.648253
1313159372693,0.654752
1313159432693,0.645054
1313159492693,0.645912
1313159552693,0.649983
1313159612693,0.643089
1313159672693,0.646853
1313159732693,0.652796
1313159792693,0.650505
1313159852693,0.648242
1313159912693,0.650051
1313159972693,0.647565
1313160032693,0.645408
1313160092693,0.645017
1313160152693,0.639480
1313160212693,0.653300
1313160272693,0.646942
1313160332693,0.651186
1313160392693,0.644773
1313160452693,0.653038
1313160512693,0.646342
1313160572693,0.648314
1313160632693,0.652629
1313160692693,0.650324
1313160752693,0.649721
1313160812693,0.650850
1313160872693,0.644845
1313160932693,0.641213
1313160992693,0.653615
1313161052693,0.648744
1313161112693,0.644538
1313161172693,0.651855
1313161232703,0.652297
1313161292703,0.648671
1313161352703,0.651602
1313161412703,0.648196
1313161472703,0.647664
1313161532703,0.647065
1313161592703,0.649820
1313161652703,0.655119
1313161712703,0.650483
1313161772703,0.643054
1313161832703,0.655522
1313161892703,0.643739
1313161952703,0.649795
1313162012703,0.652229
1313162072703,0.650016
1313162132703,0.651464
1313162192703,0.647891
1313162252703,0.647072
1313162312703,0.649545
1313162372703,0.647075
1313162432703,0.647559
1313162492703,0.649857
1313162552703,0.653058
1313162612703,0.649662
1313162672703,0.644217
1313162732703,0.649013
1313162792703,0.646934
1313162852703,0.650994
1313162912703,0.648287
1313162972703,0.650043
1313163032703,0.646871
1313163092703,0.645183
1313163152703,0.648172
1313163212703,0.652689
1313163272703,0.651717
1313163332703,0.649106
1313163392703,0.647512
1313163452703,0.650614
1313163512703,0.652359
1313163572703,0.640560
1313163632703,0.648622
1313163692703,0.648049
1313163752703,0.651525
1313163812703,0.655154
1313163872703,0.646658
1313163932703,0.653162
1313163992703,0.652202
1313164052703,0.651765
1313164112703,0.658420
1313164172703,0.655606
1313164232703,0.647193
1313164292703,0.648450
1313164352703,0.652485
1313164412703,0.649935
1313164472703,0.645301
1313164532703,0.645332
1313164592703,0.648903
1313164652703,0.655242
1313164712703,0.651699
1313164772703,0.645802
1313164832713,0.650438
1313164892713,0.652927
1313164952713,0.649444
1313165012713,0.652324
1313165072713,0.653676
1313165132713,0.647131
1313165192713,0.645500
1313165252713,0.653260
1313165312713,0.643334
1313165372713,0.651700
1313165432713,0.649583
1313165492713,0.651522
1313165552713,0.644435
1313165612713,0.649479
1313165672713,0.650667
1313165732713,0.645536
1313165792713,0.645782
1313165852713,0.647474
1313165912713,0.652588
1313165972713,0.656580
1313166032713,0.652678
1313166092713,0.646868
1313166152713,0.649937
1313166212713,0.648870
1313166272713,0.645712
1313166332713,0.648521
1313166392713,0.647515
1313166452713,0.645399
1313166512713,0.642925
1313166572713,0.642471
1313166632713,0.653050
1313166692713,0.651049
1313166752713,0.643900
1313166812713,0.646283
1313166872713,0.653091
1313166932713,0.650693
1313166992713,0.644220
1313167052713,0.644792
1313167112713,0.650847
1313167172713,0.648945
1313167232713,0.648156
1313167292713,0.646283
1313167352713,0.641779
1313167412713,0.651081
1313167472713,0.643002
1313167532713,0.643579
1313167592713,0.643189
1313167652713,0.653178
1313167712713,0.649466
1313167772713,0.645731
1313167832713,0.645853
1313167892713,0.650386
1313167952713,0.652438
1313168012713,0.643720
1313168072713,0.648479
1313168132713,0.650117
1313168192713,0.651109
1313168252713,0.653006
1313168312713,0.648115
1313168372713,0.646539
1313168432724,0.646925
1313168492724,0.641825
1313168552724,0.655452
1313168612724,0.643974
1313168672724,0.642812
1313168732724,0.643457
1313168792724,0.645519
1313168852724,0.654347
1313168912724,0.653282
1313168972724,0.652873
1313169032724,0.644153
1313169092724,0.643665
1313169152724,0.640151
1313169212724,0.649703
1313169272724,0.640745
1313169332724,0.648469
1313169392724,0.644820
1313169452724,0.647155
1313169512724,0.649721
1313169572724,0.650841
1313169632724,0.649695
1313169692724,0.652527
1313169752724,0.647733
1313169812724,0.640513
1313169872724,0.649417
1313169932724,0.642274
1313169992724,0.647333
1313170052724,0.646660
1313170112724,0.650252
1313170172724,0.642042
1313170232724,0.651945
1313170292724,0.647438
1313170352724,0.650052
1313170412724,0.644264
1313170472724,0.640658
1313170532724,0.648345
1313170592724,0.654425